Date String (YYYY-MM-DD hh:mm:ss) UTC,Instrument flags,absolute air pressure of the measurement (hPa),sample flow rate (lpm),inlet stack bypass flow (lpm),air temperature of the measurement (°C),ambient temperature measured by the external sensor (°C),aerosol sample conditioner tube jacket temperature (°C),OPC LED temperature (°C),internal box temperature (°C),relative humidity of the measurement (%),span deviation,mass concentration of particles derived from Lorenz-Mie calculation of OPC scattering (μg/m³),mass concentration of particles derived from Lorenz-Mie calculation of OPC scattering (μg/m³),mass concentration of particles derived from Lorenz-Mie calculation of OPC scattering (μg/m³)
DateTimeUTC,F1_M11,P_M11,Q1_M11,Q2_M11,T1_M11,T2_M11,T3_M11,T4_M11,T5_M11,U1_M11,ZSPAN_M11,X0_M11,X2_M11,X1_M11
2023-08-21 13:00:00,SystemResetWarning,0835.5,4.99,000.00,028.7,027.5,000.0,037.1,030.4,20.0,0003.5,0014.53,0007.33,0006.49
2023-08-21 13:01:00,SystemResetWarning,0835.4,5.00,000.00,028.7,027.6,000.0,037.1,030.4,19.9,0003.5,0014.08,0007.40,0006.55
2023-08-21 13:02:00,SystemResetWarning,0835.5,5.01,000.00,028.7,027.6,000.0,037.1,030.4,20.0,0003.6,0013.71,0007.41,0006.58
2023-08-21 13:03:00,SystemResetWarning,0835.5,4.99,000.00,028.7,026.4,000.0,037.0,030.3,19.8,0003.5,0013.97,0007.36,0006.53
2023-08-21 13:04:00,SystemResetWarning,0835.4,5.01,000.00,028.6,024.6,000.0,036.9,030.0,19.9,0003.4,0014.38,0007.30,0006.48
2023-08-21 13:05:00,SystemResetWarning,0835.4,5.00,000.00,028.5,024.0,000.0,036.9,029.8,20.2,0003.3,0014.73,0007.36,0006.48
2023-08-21 13:06:00,SystemResetWarning,0835.4,5.00,000.00,028.4,024.3,000.0,036.9,029.6,20.4,0003.4,0015.16,0007.42,0006.50
2023-08-21 13:07:00,SystemResetWarning,0835.4,5.01,000.00,028.3,024.7,000.0,036.9,029.6,20.7,0003.3,0015.13,0007.40,0006.46
2023-08-21 13:08:00,SystemResetWarning,0835.4,5.00,000.00,028.3,025.1,000.0,036.9,029.7,20.8,0003.5,0014.88,0007.30,0006.36
2023-08-21 13:09:00,SystemResetWarning,0835.5,5.00,000.00,028.3,025.5,000.0,036.9,029.8,20.8,0003.5,0014.49,0007.15,0006.23
2023-08-21 13:10:00,SystemResetWarning,0835.5,5.00,000.00,028.3,025.9,000.0,036.9,029.8,21.2,0003.3,0014.19,0007.02,0006.08
2023-08-21 13:11:00,SystemResetWarning,0835.5,5.00,000.00,028.3,026.2,000.0,036.9,029.9,21.2,0003.1,0014.08,0006.98,0006.01
2023-08-21 13:12:00,SystemResetWarning,0835.5,5.00,000.00,028.3,026.4,000.0,036.9,030.0,21.3,0003.2,0013.75,0007.01,0006.02
2023-08-21 13:13:00,SystemResetWarning,0835.6,5.00,000.00,028.4,026.6,000.0,036.9,030.0,21.0,0003.1,0013.83,0007.03,0006.05
2023-08-21 13:14:00,SystemResetWarning,0835.6,4.99,000.00,028.4,026.8,000.0,036.9,030.1,21.2,0002.7,0013.96,0007.12,0006.15
2023-08-21 13:15:00,SystemResetWarning,0835.6,4.99,000.00,028.4,027.0,000.0,036.9,030.1,21.3,0002.8,0013.95,0007.18,0006.19
2023-08-21 13:16:00,SystemResetWarning,0835.6,5.00,000.00,028.4,027.1,000.0,036.9,030.2,21.3,0003.0,0013.75,0007.10,0006.16
2023-08-21 13:17:00,SystemResetWarning,0835.5,5.02,000.00,028.5,027.2,000.0,036.9,030.2,21.2,0003.1,0013.28,0007.02,0006.12
2023-08-21 13:18:00,SystemResetWarning,0835.6,5.00,000.00,028.5,027.3,000.0,037.0,030.2,21.1,0002.9,0013.03,0006.93,0006.06
2023-08-21 13:19:00,SystemResetWarning,0835.6,5.00,000.00,028.5,027.4,000.0,037.0,030.3,21.0,0002.5,0013.41,0006.90,0006.01
2023-08-21 13:20:00,SystemResetWarning,0835.5,5.00,000.00,028.6,027.5,000.0,037.0,030.3,20.9,0002.3,0013.63,0006.86,0005.96
2023-08-21 13:21:00,SystemResetWarning,0835.5,5.00,000.00,028.6,027.5,000.0,037.0,030.3,20.8,0002.2,0013.88,0006.83,0005.92
2023-08-21 13:22:00,SystemResetWarning,0835.6,5.00,000.00,028.7,027.6,000.0,037.1,030.4,20.6,0001.9,0013.63,0006.80,0005.92
2023-08-21 13:23:00,SystemResetWarning,0835.5,4.99,000.00,028.7,027.1,000.0,037.0,030.4,20.4,0002.0,0013.76,0006.82,0005.91
2023-08-21 13:24:00,SystemResetWarning,0835.5,5.00,000.00,028.6,025.3,000.0,036.9,030.0,21.7,0001.7,0013.80,0006.83,0005.91
2023-08-21 13:25:00,SystemResetWarning,0835.5,5.01,000.00,028.5,024.4,000.0,036.8,029.8,22.2,0002.1,0013.60,0006.86,0005.91
2023-08-21 13:26:00,SystemResetWarning,0835.6,5.01,000.00,028.4,024.5,000.0,036.8,029.7,22.6,0002.0,0013.25,0006.89,0005.91
2023-08-21 13:27:00,SystemResetWarning,0835.6,5.01,000.00,028.4,024.9,000.0,036.8,029.6,23.0,0002.0,0013.59,0006.90,0005.92
2023-08-21 13:28:00,SystemResetWarning,0835.5,4.99,000.00,028.3,025.3,000.0,036.8,029.7,22.7,0001.8,0014.48,0006.94,0005.93
2023-08-21 13:29:00,SystemResetWarning,0835.5,4.99,000.00,028.3,025.6,000.0,036.9,029.8,23.2,0001.6,0015.07,0006.95,0005.92
2023-08-21 13:30:00,SystemResetWarning,0835.5,5.00,000.00,028.3,026.0,000.0,036.9,029.9,24.1,0001.5,0014.81,0006.91,0005.92
2023-08-21 13:31:00,SystemResetWarning,0835.6,5.00,000.00,028.3,026.3,000.0,036.9,030.0,22.6,0001.7,0014.82,0006.89,0005.92
2023-08-21 13:32:00,SystemResetWarning,0835.5,5.01,000.00,028.4,026.5,000.0,036.9,030.0,21.8,0001.4,0014.77,0006.87,0005.92
2023-08-21 13:33:00,SystemResetWarning,0835.5,4.98,000.00,028.4,026.7,000.0,036.9,030.1,21.4,0001.7,0014.48,0006.83,0005.90
2023-08-21 13:34:00,SystemResetWarning,0835.5,4.99,000.00,028.4,026.9,000.0,036.9,030.1,21.7,0001.3,0014.33,0006.77,0005.88
2023-08-21 13:35:00,SystemResetWarning,0835.7,5.01,000.00,028.4,027.0,000.0,036.9,030.2,21.0,0001.4,0014.26,0006.72,0005.86
2023-08-21 13:36:00,SystemResetWarning,0835.5,5.01,000.00,028.5,027.2,000.0,036.9,030.2,21.6,0001.5,0014.21,0006.70,0005.84
2023-08-21 13:37:00,SystemResetWarning,0835.6,5.00,000.00,028.5,027.3,000.0,036.9,030.3,20.2,0002.0,0014.11,0006.67,0005.85
2023-08-21 13:38:00,SystemResetWarning,0835.6,5.00,000.00,028.6,027.4,000.0,037.0,030.3,20.0,0001.5,0013.75,0006.69,0005.87
2023-08-21 13:39:00,SystemResetWarning,0835.6,5.00,000.00,028.6,027.5,000.0,037.0,030.3,20.0,0000.9,0013.00,0006.69,0005.89
2023-08-21 13:40:00,SystemResetWarning,0835.6,4.98,000.00,028.6,027.1,000.0,037.0,030.3,20.8,0000.6,0011.75,0006.67,0005.90
2023-08-21 13:41:00,SystemResetWarning,0835.6,5.00,000.00,028.6,025.4,000.0,036.9,030.0,21.8,0000.8,0011.82,0006.72,0005.94
2023-08-21 13:42:00,SystemResetWarning,0835.6,5.01,000.00,028.5,024.4,000.0,036.8,029.9,22.2,0000.4,0011.74,0006.74,0005.96
2023-08-21 13:43:00,SystemResetWarning,0835.6,5.01,000.00,028.4,024.6,000.0,036.8,029.8,20.6,0000.5,0012.17,0006.83,0005.99
2023-08-21 13:44:00,SystemResetWarning,0835.5,5.00,000.00,028.4,024.9,000.0,036.8,029.7,21.6,0000.5,0012.70,0006.91,0006.03
2023-08-21 13:45:00,SystemResetWarning,0835.5,5.00,000.00,028.3,025.3,000.0,036.8,029.8,22.3,0000.7,0012.80,0006.96,0006.06
2023-08-21 13:46:00,SystemResetWarning,0835.6,5.00,000.00,028.3,025.7,000.0,036.8,029.8,21.3,0000.5,0012.82,0006.99,0006.09
2023-08-21 13:47:00,SystemResetWarning,0835.6,5.00,000.00,028.3,026.0,000.0,036.8,029.9,21.7,0000.6,0012.97,0007.05,0006.10
2023-08-21 13:48:00,SystemResetWarning,0835.6,4.99,000.00,028.3,026.3,000.0,036.9,030.0,21.8,0000.3,0013.01,0007.08,0006.10
2023-08-21 13:49:00,SystemResetWarning,0835.6,5.00,000.00,028.4,026.6,000.0,036.9,030.0,21.0,-000.0,0013.23,0007.04,0006.08
2023-08-21 13:50:00,SystemResetWarning,0835.6,5.00,000.00,028.4,026.8,000.0,036.9,030.1,21.4,0000.4,0013.67,0007.06,0006.07
2023-08-21 13:51:00,SystemResetWarning,0835.6,5.00,000.00,028.4,026.9,000.0,036.9,030.1,22.0,0000.4,0013.94,0007.13,0006.08
2023-08-21 13:52:00,SystemResetWarning,0835.7,5.01,000.00,028.5,027.1,000.0,036.9,030.2,21.6,0000.3,0014.34,0007.11,0006.07
2023-08-21 13:53:00,SystemResetWarning,0835.6,4.99,000.00,028.5,027.2,000.0,036.9,030.2,21.0,0000.7,0014.38,0007.09,0006.06
2023-08-21 13:54:00,SystemResetWarning,0835.7,4.99,000.00,028.5,027.3,000.0,037.0,030.3,21.3,0000.7,0014.22,0007.04,0006.03
2023-08-21 13:55:00,SystemResetWarning,0835.6,5.00,000.00,028.6,027.4,000.0,037.0,030.3,21.8,0000.6,0014.10,0006.97,0005.98
2023-08-21 13:56:00,SystemResetWarning,0835.6,5.00,000.00,028.6,026.2,000.0,036.9,030.1,21.7,0000.8,0014.18,0006.88,0005.94
2023-08-21 13:57:00,SystemResetWarning,0835.6,5.00,000.00,028.5,024.7,000.0,036.8,029.8,21.9,0001.3,0014.08,0006.82,0005.90
2023-08-21 13:58:00,SystemResetWarning,0835.7,5.01,000.00,028.4,024.6,000.0,036.7,029.8,22.2,0001.2,0013.95,0006.76,0005.87
2023-08-21 13:59:00,SystemResetWarning,0835.6,5.01,000.00,028.4,024.9,000.0,036.7,029.7,21.6,0000.8,0013.72,0006.64,0005.81
